Needles, CA

6:52 AM PDT on July 26, 2016 (GMT -0700)
Needles

Weather History for KEED - February, 2013

Change the Weather History Date:

Wednesday, February 13, 2013

  Actual Average Record
Temperature  
Mean Temperature 56 °F 58 °F  
Max Temperature 68 °F 69 °F 86 °F (1924)
Min Temperature 43 °F 46 °F 24 °F (1903)
Degree Days  
Heating Degree Days 10    
Cooling Degree Days 0    
Growing Degree Days 6 (Base 50)    
Moisture  
Dew Point 22 °F    
Average Humidity 27    
Maximum Humidity 39    
Minimum Humidity 18    
Precipitation  
Precipitation 0.00 in 0.03 in 0.74 in (1992)
Month to date precipitation 0.35  
Year to date precipitation 1.07  
Sea Level Pressure  
Sea Level Pressure 30.16 in    
Wind  
Wind Speed 9 mph (NNW)    
Max Wind Speed 22 mph    
Max Gust Speed 29 mph    
Visibility 10 miles    
Events      
T = Trace of Precipitation, MM = Missing Value Source: NWS Daily Summary

Daily Weather History Graph

Daily Weather History Graph

Search for Another Location

Airport or City:

Trip Planner

Search our weather history database for the weather conditions in past years. The results will help you decide how hot, cold, wet, or windy it might be!

Date:

Astronomy

Feb. 13, 2013 Rise Set
Actual Time 6:25 AM PST 5:19 PM PST
Civil Twilight 5:59 AM PST 5:45 PM PST
Nautical Twilight 5:30 AM PST 6:15 PM PST
Astronomical Twilight 5:00 AM PST 6:44 PM PST
Moon 8:08 AM PST (2/13) 9:14 PM PST (2/13)
Length of Visible Light 11h 45m
Length of Day
10h 54m
Waxing Crescent, 14% of the Moon is Illuminated
Feb 13
Waxing Crescent
Feb 17
First Quarter
Feb 25
Full
Mar 4
Last Quarter
Mar 11
New

Hourly Weather History & Observations

Time (PST) Temp. Windchill Dew Point Humidity Pressure Visibility Wind Dir Wind Speed Gust Speed Precip Events Conditions
12:56 AM 45.0 °F 42.6 °F 16.0 °F 31% 30.23 in 10.0 mi WNW 4.6 mph - N/A   Clear
1:56 AM 43.0 °F 38.8 °F 17.1 °F 35% 30.22 in 10.0 mi West 6.9 mph - N/A   Clear
2:56 AM 45.0 °F 41.8 °F 16.0 °F 31% 30.20 in 10.0 mi NNW 5.8 mph - N/A   Clear
3:56 AM 46.0 °F 41.9 °F 17.1 °F 31% 30.20 in 10.0 mi NNW 8.1 mph - N/A   Clear
4:56 AM 46.0 °F 41.9 °F 18.0 °F 33% 30.21 in 10.0 mi WNW 8.1 mph - N/A   Clear
5:56 AM 44.1 °F 40.8 °F 19.0 °F 37% 30.21 in 10.0 mi NW 5.8 mph - N/A   Clear
6:56 AM 48.0 °F - 19.9 °F 33% 30.22 in 10.0 mi WNW 4.6 mph - N/A   Clear
7:56 AM 53.1 °F - 21.0 °F 29% 30.23 in 10.0 mi ENE 5.8 mph - N/A   Clear
8:56 AM 55.0 °F - 23.0 °F 29% 30.24 in 10.0 mi North 12.7 mph - N/A   Clear
9:56 AM 60.1 °F - 21.9 °F 23% 30.23 in 10.0 mi NE 15.0 mph 21.9 mph N/A   Clear
10:56 AM 62.1 °F - 21.9 °F 21% 30.21 in 10.0 mi NNE 21.9 mph - N/A   Clear
11:56 AM 64.0 °F - 21.9 °F 20% 30.18 in 10.0 mi NNE 16.1 mph 28.8 mph N/A   Clear
12:56 PM 66.0 °F - 21.9 °F 19% 30.14 in 10.0 mi NNE 19.6 mph - N/A   Clear
1:56 PM 68.0 °F - 23.0 °F 18% 30.11 in 10.0 mi NNE 13.8 mph 24.2 mph N/A   Clear
2:56 PM 68.0 °F - 23.0 °F 18% 30.09 in 10.0 mi NNE 18.4 mph 25.3 mph N/A   Clear
3:56 PM 68.0 °F - 23.0 °F 18% 30.07 in 10.0 mi NNE 18.4 mph 27.6 mph N/A   Clear
4:56 PM 66.0 °F - 24.1 °F 20% 30.07 in 10.0 mi NNE 12.7 mph - N/A   Clear
5:56 PM 63.0 °F - 23.0 °F 22% 30.08 in 10.0 mi North 11.5 mph - N/A   Clear
6:56 PM 60.1 °F - 23.0 °F 24% 30.09 in 10.0 mi North 8.1 mph - N/A   Clear
7:56 PM 59.0 °F - 24.1 °F 26% 30.09 in 10.0 mi NW 5.8 mph - N/A   Clear
8:56 PM 55.0 °F - 24.1 °F 30% 30.10 in 10.0 mi West 8.1 mph - N/A   Clear
9:56 PM 53.1 °F - 25.0 °F 34% 30.10 in 10.0 mi WNW 6.9 mph - N/A   Clear
10:56 PM 50.0 °F - 25.0 °F 38% 30.11 in 10.0 mi West 3.5 mph - N/A   Clear
11:56 PM 48.9 °F - 25.0 °F 39% 30.10 in 10.0 mi West 6.9 mph - N/A   Clear